TimeEDT,TemperatureF,Dew PointF,Humidity,Sea Level PressureIn,VisibilityMPH,Wind Direction,Wind SpeedMPH,Gust SpeedMPH,PrecipitationIn,Events,Conditions,WindDirDegrees,DateUTC
12:15 AM,72.5,63.5,73,29.92,7.0,South,6.9,-,N/A,,Clear,180,2013-05-21 04:15:00
12:35 AM,72.0,64.2,77,29.92,10.0,South,6.9,-,N/A,,Clear,180,2013-05-21 04:35:00
12:55 AM,71.4,64.6,79,29.93,7.0,South,5.8,-,N/A,,Clear,190,2013-05-21 04:55:00
1:15 AM,70.5,64.2,80,29.92,7.0,South,3.5,-,N/A,,Clear,190,2013-05-21 05:15:00
1:35 AM,69.4,63.9,82,29.91,7.0,SSE,6.9,-,N/A,,Clear,160,2013-05-21 05:35:00
1:55 AM,68.9,63.9,84,29.92,5.0,South,3.5,-,N/A,,Haze,190,2013-05-21 05:55:00
2:15 AM,68.4,63.5,84,29.92,5.0,SSE,3.5,-,N/A,,Haze,160,2013-05-21 06:15:00
2:35 AM,67.3,63.0,86,29.92,5.0,South,4.6,-,N/A,,Clear,170,2013-05-21 06:35:00
2:55 AM,67.1,63.0,87,29.91,5.0,South,5.8,-,N/A,,Clear,170,2013-05-21 06:55:00
3:15 AM,67.8,63.5,86,29.91,7.0,South,6.9,-,N/A,,Scattered Clouds,170,2013-05-21 07:15:00
3:35 AM,68.0,63.3,85,29.92,7.0,South,5.8,-,N/A,,Scattered Clouds,190,2013-05-21 07:35:00
3:55 AM,68.0,63.0,84,29.91,7.0,South,4.6,-,N/A,,Scattered Clouds,170,2013-05-21 07:55:00
4:15 AM,67.5,63.0,85,29.91,7.0,South,6.9,-,N/A,,Scattered Clouds,180,2013-05-21 08:15:00
4:35 AM,67.6,62.8,84,29.91,7.0,South,8.1,-,N/A,,Mostly Cloudy,190,2013-05-21 08:35:00
4:55 AM,68.4,62.8,82,29.91,10.0,South,6.9,-,N/A,,Scattered Clouds,170,2013-05-21 08:55:00
5:15 AM,67.6,62.4,83,29.91,7.0,SSE,6.9,-,N/A,,Clear,160,2013-05-21 09:15:00
5:35 AM,67.3,62.1,83,29.91,7.0,South,6.9,-,N/A,,Clear,170,2013-05-21 09:35:00
5:55 AM,67.8,62.2,82,29.91,10.0,South,9.2,-,N/A,,Clear,170,2013-05-21 09:55:00
6:15 AM,68.9,62.6,80,29.91,10.0,South,8.1,-,N/A,,Clear,170,2013-05-21 10:15:00
6:35 AM,68.9,62.6,80,29.93,7.0,South,6.9,-,N/A,,Clear,170,2013-05-21 10:35:00
6:55 AM,68.5,62.6,81,29.92,7.0,SSE,8.1,-,N/A,,Clear,160,2013-05-21 10:55:00
7:15 AM,68.7,62.6,81,29.92,10.0,South,9.2,-,N/A,,Unknown,170,2013-05-21 11:15:00
7:35 AM,70.3,63.0,77,29.91,10.0,South,9.2,-,N/A,,Unknown,180,2013-05-21 11:35:00
7:55 AM,70.9,63.1,76,29.91,10.0,SSW,9.2,-,N/A,,Unknown,200,2013-05-21 11:55:00
8:15 AM,71.1,63.5,77,29.92,10.0,South,10.4,-,N/A,,Unknown,190,2013-05-21 12:15:00
8:35 AM,71.2,63.5,76,29.92,10.0,South,10.4,-,N/A,,Clear,190,2013-05-21 12:35:00
8:55 AM,72.0,63.7,75,29.93,10.0,SSW,12.7,16.1,N/A,,Clear,200,2013-05-21 12:55:00
9:15 AM,73.2,64.2,73,29.93,10.0,SSW,11.5,19.6,N/A,,Clear,200,2013-05-21 13:15:00
9:35 AM,74.3,64.2,71,29.94,10.0,SSW,15.0,18.4,N/A,,Clear,210,2013-05-21 13:35:00
9:55 AM,75.0,63.9,68,29.95,10.0,SSW,12.7,18.4,N/A,,Clear,210,2013-05-21 13:55:00
10:15 AM,77.2,63.9,63,29.94,10.0,SW,15.0,-,N/A,,Clear,220,2013-05-21 14:15:00
10:35 AM,79.2,62.8,57,29.95,10.0,SW,12.7,18.4,N/A,,Clear,220,2013-05-21 14:35:00
10:55 AM,80.6,62.1,53,29.95,10.0,SW,13.8,19.6,N/A,,Unknown,230,2013-05-21 14:55:00
11:15 AM,81.7,60.6,49,29.94,10.0,WSW,12.7,21.9,N/A,,Unknown,250,2013-05-21 15:15:00
11:35 AM,80.8,59.4,48,29.93,10.0,West,13.8,-,N/A,,Unknown,260,2013-05-21 15:35:00
11:55 AM,81.3,59.5,47,29.92,10.0,SSW,8.1,-,N/A,,Unknown,200,2013-05-21 15:55:00
12:15 PM,82.4,59.9,46,29.90,10.0,South,8.1,-,N/A,,Clear,170,2013-05-21 16:15:00
12:35 PM,83.3,61.3,47,29.90,10.0,SSE,9.2,-,N/A,,Clear,160,2013-05-21 16:35:00
12:55 PM,83.5,61.2,47,29.88,10.0,South,11.5,23.0,N/A,,Clear,180,2013-05-21 16:55:00
1:15 PM,84.0,60.6,45,29.88,10.0,South,11.5,16.1,N/A,,Clear,170,2013-05-21 17:15:00
1:35 PM,84.9,60.1,43,29.86,10.0,South,16.1,19.6,N/A,,Clear,180,2013-05-21 17:35:00
1:55 PM,85.1,58.8,41,29.87,10.0,SSW,13.8,21.9,N/A,,Clear,200,2013-05-21 17:55:00
2:15 PM,85.5,58.1,39,29.86,10.0,SW,13.8,23.0,N/A,,Unknown,220,2013-05-21 18:15:00
2:35 PM,85.6,57.6,38,29.86,10.0,SW,16.1,23.0,N/A,,Clear,230,2013-05-21 18:35:00
2:55 PM,85.6,56.5,37,29.86,10.0,South,13.8,26.5,N/A,,Clear,190,2013-05-21 18:55:00
3:15 PM,86.5,58.6,39,29.85,10.0,SW,13.8,25.3,N/A,,Scattered Clouds,220,2013-05-21 19:15:00
3:35 PM,87.6,57.4,36,29.85,10.0,SSW,15.0,21.9,N/A,,Scattered Clouds,200,2013-05-21 19:35:00
3:55 PM,88.3,55.9,33,29.85,10.0,SW,15.0,26.5,N/A,,Scattered Clouds,230,2013-05-21 19:55:00
4:15 PM,87.4,57.0,35,29.84,10.0,SW,17.3,26.5,N/A,,Scattered Clouds,220,2013-05-21 20:15:00
4:35 PM,86.5,55.4,34,29.84,10.0,WSW,12.7,23.0,N/A,,Unknown,240,2013-05-21 20:35:00
4:55 PM,76.5,58.8,54,29.86,-9999.0,ESE,9.2,54.1,N/A,Thunderstorm,Thunderstorm,120,2013-05-21 20:55:00
5:15 PM,72.9,63.1,71,29.84,10.0,Calm,Calm,-,N/A,,Unknown,0,2013-05-21 21:15:00
5:35 PM,80.4,63.7,57,29.83,10.0,South,5.8,-,N/A,,Unknown,190,2013-05-21 21:35:00
5:55 PM,81.7,63.5,54,29.83,10.0,SW,5.8,9.2,N/A,,Clear,220,2013-05-21 21:55:00
6:15 PM,82.2,63.0,52,29.83,10.0,SW,10.4,-,N/A,,Clear,220,2013-05-21 22:15:00
6:35 PM,82.9,62.1,49,29.83,10.0,SW,12.7,19.6,N/A,,Clear,220,2013-05-21 22:35:00
6:55 PM,82.6,61.2,48,29.82,10.0,SW,10.4,-,N/A,,Clear,220,2013-05-21 22:55:00
7:15 PM,81.7,61.2,50,29.82,10.0,SSW,10.4,-,N/A,,Clear,210,2013-05-21 23:15:00
7:35 PM,81.3,61.0,50,29.82,10.0,SW,6.9,-,N/A,,Clear,220,2013-05-21 23:35:00
7:55 PM,81.0,61.2,51,29.82,10.0,SW,5.8,-,N/A,,Clear,230,2013-05-21 23:55:00
8:15 PM,79.7,60.8,52,29.83,10.0,SSW,8.1,-,N/A,,Clear,210,2013-05-22 00:15:00
8:35 PM,79.0,61.2,54,29.83,10.0,SSW,10.4,-,N/A,Thunderstorm,Unknown,200,2013-05-22 00:35:00
8:55 PM,78.4,61.5,56,29.82,10.0,South,9.2,-,N/A,,Unknown,190,2013-05-22 00:55:00
9:15 PM,77.7,61.5,57,29.81,10.0,SSW,8.1,-,N/A,,Unknown,200,2013-05-22 01:15:00
9:35 PM,76.5,61.9,61,29.82,10.0,SSW,6.9,-,N/A,,Unknown,200,2013-05-22 01:35:00
9:55 PM,75.7,61.9,62,29.83,10.0,South,5.8,-,N/A,,Scattered Clouds,190,2013-05-22 01:55:00
10:15 PM,76.3,62.1,61,29.83,10.0,South,6.9,-,N/A,,Scattered Clouds,190,2013-05-22 02:15:00
10:35 PM,76.6,62.1,61,29.84,10.0,South,9.2,-,N/A,,Scattered Clouds,190,2013-05-22 02:35:00
10:55 PM,76.6,60.4,57,29.86,10.0,South,10.4,-,N/A,,Mostly Cloudy,190,2013-05-22 02:55:00
11:15 PM,75.7,58.8,56,29.86,10.0,South,13.8,18.4,N/A,,Mostly Cloudy,190,2013-05-22 03:15:00
11:35 PM,74.3,58.3,57,29.86,10.0,SSW,11.5,16.1,N/A,,Scattered Clouds,200,2013-05-22 03:35:00
11:55 PM,73.2,57.9,59,29.86,10.0,SSW,13.8,-,N/A,,Scattered Clouds,200,2013-05-22 03:55:00